Location: Newark
(50.1395°N, 5.5234°W)
Time: 05:02:04
(UTC+00:00)

Envisat - Visible Passes

Search period start: 26 February 2021 00:00
Search period end: 08 March 2021 00:00
Orbit: 764 x 766 km, 98.1° (Epoch: 25 February)

Date Brightness Start Highest point End Pass type
(mag) Time Alt. Az. Time Alt. Az. Time Alt. Az.
26 Feb 6.0 04:47:11 10° NE 04:50:17 16° E 04:53:21 10° SE visible
26 Feb 3.0 06:24:50 10° NNE 06:29:57 82° WNW 06:35:02 10° SSW visible
27 Feb 4.0 05:48:05 10° NNE 05:53:04 51° E 05:58:00 10° S visible
27 Feb 6.5 18:50:01 10° WSW 18:52:05 12° W 18:54:11 10° WNW visible
28 Feb 5.3 05:11:46 10° NE 05:15:59 26° E 05:20:11 10° SSE visible
01 Mar 6.1 04:36:26 10° ENE 04:38:41 13° E 04:40:57 10° ESE visible
01 Mar 3.1 06:13:25 10° NNE 06:18:32 83° ESE 06:23:37 10° SSW visible
02 Mar 4.4 05:36:46 10° NNE 05:41:35 41° E 05:46:22 10° SSE visible
02 Mar 6.3 18:37:32 10° WSW 18:40:30 15° W 18:43:29 10° NW visible
03 Mar 5.6 05:00:36 10° NE 05:04:27 21° E 05:08:15 10° SE visible
04 Mar 6.4 04:26:52 10° E 04:27:05 10° E 04:27:17 10° E visible
04 Mar 3.5 06:02:00 10° NNE 06:07:05 67° ESE 06:12:08 10° S visible
05 Mar 4.8 05:25:28 10° NNE 05:30:05 34° E 05:34:40 10° SSE visible
06 Mar 5.9 04:49:34 10° NE 04:52:52 17° E 04:56:10 10° SE visible
07 Mar 3.9 05:50:37 10° NNE 05:55:38 55° E 06:00:36 10° S visible
07 Mar 6.7 18:53:04 10° WSW 18:54:42 11° W 18:56:19 10° WNW visible
